DW8945 Weather Reports


Display with metric or nautical units.
time (UTC)temp
F
wind
direction
speed
MPH
gust
MPH
rain 1hr
in
rain 24hr
in
rain mn
in
humidity
%
barometer
mb
20260510022855 53 217 0.0 0.0 0.00 0.00 0.00 94 1011.7
20260510022343 53 217 0.0 0.0 0.00 0.00 0.00 94 1011.8
20260510021847 53 217 0.0 0.0 0.00 0.00 0.00 94 1011.9
20260510021353 53 217 0.0 3.0 0.00 0.00 0.00 94 1011.8
20260510020859 53 217 0.0 3.0 0.00 0.00 0.00 94 1011.9
20260510020340 53 217 0.0 5.0 0.00 0.00 0.00 94 1012.0
20260510015854 53 217 2.0 7.0 0.00 0.00 0.00 94 1012.0
20260510015419 53 214 1.0 7.0 0.00 0.00 0.00 94 1012.0
20260510014904 54 228 2.0 8.0 0.00 0.00 0.00 94 1012.0
20260510014347 54 228 3.0 9.0 0.00 0.00 0.00 94 1011.9
20260510013853 54 244 2.0 7.0 0.00 0.00 0.00 95 1012.0
20260510013418 54 267 1.0 4.0 0.00 0.00 0.00 95 1012.0
20260510012842 54 267 0.0 6.0 0.00 0.00 0.00 95 1011.9
20260510012348 54 267 1.0 5.0 0.00 0.00 0.00 95 1011.9
20260510011853 54 281 1.0 5.0 0.00 0.00 0.00 95 1011.8
20260510011359 54 292 1.0 4.0 0.00 0.00 0.00 94 1011.8
20260510010848 53 293 0.0 3.0 0.00 0.00 0.00 95 1011.7
20260510010348 53 296 0.0 4.0 0.00 0.00 0.00 94 1011.7
20260510005857 53 5 1.0 3.0 0.00 0.00 0.00 94 1011.8
20260510005404 52 24 0.0 0.0 0.00 0.00 0.00 94 1011.8
20260510004849 52 24 0.0 0.0 0.00 0.00 0.00 94 1011.7
20260510004354 52 24 0.0 0.0 0.00 0.00 0.00 94 1011.7
20260510003902 52 24 0.0 0.0 0.00 0.00 0.00 94 1011.7
20260510003344 52 24 0.0 0.0 0.00 0.00 0.00 94 1011.8
20260510002909 52 24 0.0 0.0 0.00 0.00 0.00 94 1011.7
20260510002355 52 24 0.0 0.0 0.00 0.00 0.00 94 1011.7
20260510001921 52 24 0.0 0.0 0.00 0.00 0.00 94 1011.7
20260510001345 52 24 0.0 0.0 0.00 0.00 0.00 94 1011.8
20260510000852 52 24 0.0 0.0 0.00 0.00 0.00 94 1011.8
20260510000351 52 24 0.0 0.0 0.00 0.00 0.00 94 1012.0
20260509235844 52 24 0.0 0.0 0.00 0.00 0.00 94 1012.0
20260509235412 52 24 0.0 0.0 0.00 0.00 0.00 94 1012.0
20260509234857 52 24 0.0 1.0 0.00 0.00 0.00 94 1012.1
20260509234345 52 24 0.0 1.0 0.00 0.00 0.00 94 1012.2
20260509233853 52 24 0.0 0.0 0.00 0.00 0.00 94 1012.2
20260509233358 52 24 0.0 0.0 0.00 0.00 0.00 94 1012.1
20260509232844 52 24 0.0 1.0 0.00 0.00 0.00 94 1012.0
20260509232351 52 24 0.0 1.0 0.00 0.00 0.00 94 1012.0
20260509231915 52 24 0.0 0.0 0.00 0.00 0.00 94 1011.9
20260509231400 52 24 0.0 0.0 0.00 0.00 0.00 94 1011.9
20260509230847 52 24 0.0 3.0 0.00 0.00 0.00 93 1011.8
20260509230406 52 24 0.0 3.0 0.00 0.00 0.00 93 1011.7
20260509225855 52 22 0.0 2.0 0.00 0.00 0.00 93 1011.6
20260509225422 52 22 0.0 3.0 0.00 0.00 0.00 93 1011.8
20260509224846 52 22 0.0 3.0 0.00 0.00 0.00 93 1011.7
20260509224414 52 22 1.0 3.0 0.00 0.00 0.00 93 1011.6
20260509223859 52 23 0.0 1.0 0.00 0.00 0.00 93 1011.4
20260509223401 52 23 0.0 1.0 0.00 0.00 0.00 93 1011.3
20260509222846 52 23 0.0 1.0 0.00 0.00 0.00 93 1011.2
20260509222354 53 23 0.0 2.0 0.00 0.00 0.00 93 1011.2
20260509221856 53 23 0.0 2.0 0.00 0.00 0.00 93 1011.2
20260509221342 53 23 0.0 3.0 0.00 0.00 0.00 93 1011.1
20260509220909 53 23 1.0 3.0 0.00 0.00 0.00 93 1011.3
20260509220347 53 23 0.0 1.0 0.00 0.00 0.00 93 1011.4
20260509215901 53 23 0.0 4.0 0.00 0.00 0.00 93 1011.4
20260509215346 53 23 0.0 4.0 0.00 0.00 0.00 93 1011.4
20260509214845 53 132 1.0 4.0 0.00 0.00 0.00 93 1011.4
20260509214352 53 129 0.0 2.0 0.00 0.00 0.00 93 1011.0
20260509213900 53 129 0.0 4.0 0.00 0.00 0.00 93 1011.0
20260509213345 53 129 1.0 4.0 0.00 0.00 0.00 93 1011.1
20260509212853 53 130 1.0 3.0 0.00 0.00 0.00 92 1011.0
20260509212400 53 130 1.0 3.0 0.00 0.00 0.00 92 1011.1
20260509211846 53 130 0.0 3.0 0.00 0.00 0.00 92 1011.1
20260509211354 53 130 1.0 3.0 0.00 0.00 0.00 92 1011.1
20260509210841 54 130 0.0 4.0 0.00 0.00 0.00 92 1011.3
20260509210341 54 130 2.0 4.0 0.00 0.00 0.00 92 1011.1
20260509205853 54 130 1.0 3.0 0.00 0.00 0.00 92 1011.2
20260509205400 54 130 0.0 2.0 0.00 0.00 0.00 92 1011.1
20260509204843 54 129 0.0 2.0 0.00 0.00 0.00 92 1011.0
20260509204349 54 129 0.0 0.0 0.00 0.00 0.00 92 1010.9
20260509203854 54 129 0.0 1.0 0.00 0.00 0.00 91 1011.0
20260509203359 54 129 0.0 4.0 0.00 0.00 0.00 91 1011.0
20260509202843 54 129 1.0 4.0 0.00 0.00 0.00 91 1010.9
20260509202349 54 129 2.0 4.0 0.00 0.00 0.00 91 1011.0
20260509201852 54 130 1.0 4.0 0.00 0.00 0.00 90 1011.0
20260509201359 54 130 0.0 4.0 0.00 0.00 0.00 90 1011.2
20260509200842 54 130 2.0 5.0 0.00 0.00 0.00 90 1011.2
20260509200344 54 130 2.0 5.0 0.00 0.00 0.00 89 1011.2
20260509195914 54 126 2.0 6.0 0.00 0.00 0.00 89 1011.0
20260509195341 54 128 0.0 6.0 0.00 0.00 0.00 88 1011.0
20260509194843 54 112 0.0 5.0 0.00 0.00 0.00 88 1011.2
20260509194349 54 111 3.0 5.0 0.00 0.00 0.00 87 1011.1
20260509193856 55 113 2.0 4.0 0.00 0.00 0.00 87 1011.3
20260509193343 55 112 1.0 4.0 0.00 0.00 0.00 87 1011.3
20260509192910 55 113 1.0 4.0 0.00 0.00 0.00 87 1011.3
20260509192417 55 112 1.0 4.0 0.00 0.00 0.00 87 1011.4
20260509191856 54 111 2.0 4.0 0.00 0.00 0.00 88 1011.3
20260509191403 54 112 2.0 4.0 0.00 0.00 0.00 88 1011.2
20260509190907 54 109 1.0 5.0 0.00 0.00 0.00 88 1011.2
20260509190346 54 106 3.0 7.0 0.00 0.00 0.00 88 1011.3
20260509185859 54 125 2.0 7.0 0.00 0.00 0.00 88 1011.1
20260509185346 54 123 1.0 7.0 0.00 0.00 0.00 88 1011.3
20260509184849 54 117 2.0 7.0 0.00 0.00 0.00 87 1011.4
20260509184357 54 107 3.0 7.0 0.00 0.00 0.00 87 1011.4
20260509183843 54 63 2.0 7.0 0.00 0.00 0.00 87 1011.3
20260509183347 54 105 4.0 7.0 0.00 0.00 0.00 88 1011.0
20260509182852 54 103 5.0 7.0 0.00 0.00 0.00 87 1010.9
20260509182419 54 109 2.0 7.0 0.00 0.00 0.00 87 1011.2
20260509181843 54 99 3.0 7.0 0.00 0.00 0.00 86 1011.4
20260509181349 55 109 3.0 5.0 0.00 0.00 0.00 84 1011.9
20260509180856 55 108 0.0 4.0 0.00 0.00 0.00 84 1012.2
20260509180355 55 109 2.0 4.0 0.00 0.00 0.00 83 1012.3
20260509175845 55 106 0.0 5.0 0.00 0.00 0.00 83 1012.4
20260509175411 55 106 1.0 5.0 0.00 0.00 0.00 82 1012.5
20260509174853 55 104 2.0 6.0 0.00 0.00 0.00 81 1012.1
20260509174359 55 101 3.0 6.0 0.00 0.00 0.00 80 1012.1
20260509173847 55 126 1.0 7.0 0.00 0.00 0.00 80 1012.2
20260509173353 55 108 3.0 7.0 0.00 0.00 0.00 79 1012.1
20260509172858 55 94 3.0 8.0 0.00 0.00 0.00 78 1012.2
20260509172346 55 106 3.0 8.0 0.00 0.00 0.00 78 1012.1
20260509171910 55 57 3.0 7.0 0.00 0.00 0.00 78 1012.2
20260509171356 55 76 3.0 7.0 0.00 0.00 0.00 77 1012.2
20260509170844 55 111 3.0 5.0 0.00 0.00 0.00 76 1012.3
20260509170346 55 109 2.0 5.0 0.00 0.00 0.00 76 1012.3
20260509165917 55 106 3.0 6.0 0.00 0.00 0.00 75 1012.3
20260509165343 55 97 3.0 6.0 0.00 0.00 0.00 75 1012.5
20260509164847 55 126 2.0 5.0 0.00 0.00 0.00 75 1012.3
20260509164355 55 132 2.0 5.0 0.00 0.00 0.00 75 1012.4
20260509163841 55 148 2.0 5.0 0.00 0.00 0.00 75 1012.5
20260509163344 55 169 0.0 5.0 0.00 0.00 0.00 75 1012.6
20260509162849 54 169 2.0 4.0 0.00 0.00 0.00 76 1012.7
20260509162417 54 169 1.0 4.0 0.00 0.00 0.00 76 1012.7
20260509161920 54 188 0.0 4.0 0.00 0.00 0.00 76 1012.7
20260509161345 54 144 2.0 6.0 0.00 0.00 0.00 75 1012.6
20260509160852 54 158 2.0 6.0 0.00 0.00 0.00 76 1012.6
20260509160420 54 85 1.0 6.0 0.00 0.00 0.00 76 1012.7
20260509155845 54 142 3.0 6.0 0.00 0.00 0.00 76 1012.7
20260509155352 54 130 2.0 5.0 0.00 0.00 0.00 76 1012.7
20260509154857 53 135 1.0 5.0 0.00 0.00 0.00 76 1013.0
20260509154343 53 136 2.0 5.0 0.00 0.00 0.00 75 1012.9
20260509153910 53 133 2.0 5.0 0.00 0.00 0.00 74 1012.9
20260509153413 53 113 2.0 5.0 0.00 0.00 0.00 74 1012.9
20260509152840 53 97 2.0 7.0 0.00 0.00 0.00 75 1012.8
20260509152407 52 124 3.0 7.0 0.00 0.00 0.00 76 1012.9
20260509151849 52 107 1.0 3.0 0.00 0.00 0.00 79 1012.9
20260509151357 52 104 0.0 3.0 0.00 0.00 0.00 80 1013.1
20260509150924 52 104 1.0 3.0 0.00 0.00 0.00 80 1013.1
20260509150357 51 102 1.0 5.0 0.00 0.00 0.00 80 1013.3
20260509145906 51 101 2.0 5.0 0.00 0.00 0.00 81 1013.1
20260509145352 51 117 2.0 4.0 0.00 0.00 0.00 82 1013.2
20260509144853 51 121 2.0 3.0 0.00 0.00 0.00 83 1013.3
20260509144358 50 113 1.0 3.0 0.00 0.00 0.00 85 1013.4
20260509143859 50 177 0.0 2.0 0.00 0.00 0.00 86 1013.5
20260509143359 50 177 0.0 1.0 0.00 0.00 0.00 86 1013.7
20260509142903 49 177 0.0 1.0 0.00 0.00 0.00 86 1013.8
20260509142404 49 177 0.0 0.0 0.00 0.00 0.00 86 1013.9
20260509141905 49 177 0.0 2.0 0.00 0.00 0.00 86 1013.9
20260509141349 49 177 0.0 3.0 0.00 0.00 0.00 86 1013.9
20260509140854 49 177 1.0 3.0 0.00 0.00 0.00 86 1013.9
20260509140353 49 178 0.0 2.0 0.00 0.00 0.00 87 1014.0
20260509135905 48 178 0.0 2.0 0.00 0.00 0.00 87 1014.1
20260509135350 48 178 0.0 0.0 0.00 0.00 0.00 87 1014.1
20260509134914 48 178 0.0 2.0 0.00 0.00 0.00 87 1014.1
20260509134356 48 178 0.0 2.0 0.00 0.00 0.00 86 1014.1
20260509133902 47 178 0.0 1.0 0.00 0.00 0.00 86 1014.2
20260509133406 47 224 0.0 2.0 0.00 0.00 0.00 86 1014.1
20260509132851 47 191 0.0 2.0 0.00 0.00 0.00 85 1014.1
20260509132355 47 191 0.0 3.0 0.00 0.00 0.00 85 1014.0
20260509131858 47 191 1.0 3.0 0.00 0.00 0.00 85 1014.0
20260509131401 46 190 1.0 2.0 0.00 0.00 0.00 84 1014.1
20260509130905 46 190 0.0 1.0 0.00 0.00 0.00 85 1014.0
20260509130404 46 190 0.0 0.0 0.00 0.00 0.00 85 1013.9
20260509125856 46 190 0.0 0.0 0.00 0.00 0.00 85 1013.8
20260509125401 46 190 0.0 0.0 0.00 0.00 0.00 85 1013.8
20260509124844 46 190 0.0 0.0 0.00 0.00 0.00 85 1014.0
20260509124351 46 190 0.0 0.0 0.00 0.00 0.00 85 1014.1
20260509123856 46 190 0.0 0.0 0.00 0.00 0.00 85 1014.2
20260509123357 46 190 0.0 0.0 0.00 0.00 0.00 85 1014.2
20260509122902 46 229 0.0 0.0 0.00 0.00 0.00 85 1014.2
20260509122346 46 238 0.0 0.0 0.00 0.00 0.00 85 1014.2
20260509121851 45 238 0.0 0.0 0.00 0.00 0.00 85 1014.2
20260509121355 45 238 0.0 0.0 0.00 0.00 0.00 85 1014.3
20260509120900 45 238 0.0 0.0 0.00 0.00 0.00 85 1014.5
20260509120420 45 238 0.0 0.0 0.00 0.00 0.00 85 1014.4
20260509115850 45 235 0.0 0.0 0.00 0.00 0.00 85 1014.4
20260509115353 45 235 0.0 0.0 0.00 0.00 0.00 85 1014.5
20260509114856 45 235 0.0 0.0 0.00 0.00 0.00 84 1014.5
20260509114400 45 235 0.0 1.0 0.00 0.00 0.00 84 1014.5
20260509113845 45 235 0.0 4.0 0.00 0.00 0.00 84 1014.5
20260509113351 45 234 0.0 1.0 0.00 0.00 0.00 83 1014.5
20260509112855 45 234 0.0 1.0 0.00 0.00 0.00 83 1014.4
20260509112419 45 234 0.0 3.0 0.00 0.00 0.00 83 1014.4
20260509111901 44 234 0.0 6.0 0.00 0.00 0.00 83 1014.5
20260509111347 44 223 2.0 6.0 0.00 0.00 0.00 83 1014.4
20260509110853 44 331 0.0 2.0 0.00 0.00 0.00 83 1014.3
20260509110350 44 322 0.0 2.0 0.00 0.00 0.00 84 1014.4
20260509105903 44 322 0.0 2.0 0.00 0.00 0.00 84 1014.5
20260509105349 43 323 0.0 2.0 0.00 0.00 0.00 84 1014.5
20260509104913 43 323 0.0 0.0 0.00 0.00 0.00 84 1014.4
20260509104357 43 323 0.0 0.0 0.00 0.00 0.00 84 1014.4
20260509103903 43 323 0.0 0.0 0.00 0.00 0.00 84 1014.3
20260509103406 43 323 0.0 1.0 0.00 0.00 0.00 85 1014.2
20260509102850 43 323 0.0 1.0 0.00 0.00 0.00 85 1014.1
20260509102354 43 323 0.0 0.0 0.00 0.00 0.00 85 1014.0
20260509101856 43 323 0.0 0.0 0.00 0.00 0.00 85 1013.9
20260509101400 42 323 0.0 0.0 0.00 0.00 0.00 85 1013.9
20260509100904 42 323 0.0 0.0 0.00 0.00 0.00 85 1013.8
20260509100342 42 323 0.0 0.0 0.00 0.00 0.00 85 1013.7
20260509095855 42 323 0.0 0.0 0.00 0.00 0.00 85 1013.6
20260509095357 42 323 0.0 0.0 0.00 0.00 0.00 84 1013.6
20260509094857 42 323 0.0 0.0 0.00 0.00 0.00 84 1013.6
20260509094400 41 323 0.0 0.0 0.00 0.00 0.00 84 1013.4
20260509093904 41 323 0.0 0.0 0.00 0.00 0.00 83 1013.5
20260509093404 41 323 0.0 0.0 0.00 0.00 0.00 83 1013.5
20260509092849 41 323 0.0 0.0 0.00 0.00 0.00 83 1013.5
20260509092353 41 323 0.0 0.0 0.00 0.00 0.00 83 1013.5
20260509091917 41 323 0.0 0.0 0.00 0.00 0.00 83 1013.5
20260509091400 41 323 0.0 0.0 0.00 0.00 0.00 83 1013.4
20260509090845 41 323 0.0 0.0 0.00 0.00 0.00 83 1013.4
20260509090343 41 323 0.0 0.0 0.00 0.00 0.00 83 1013.3
20260509085851 41 323 0.0 0.0 0.00 0.00 0.00 83 1013.3
20260509085355 41 323 0.0 0.0 0.00 0.00 0.00 83 1013.3
20260509084858 41 323 0.0 0.0 0.00 0.00 0.00 82 1013.2
20260509084402 41 323 0.0 0.0 0.00 0.00 0.00 82 1013.3
20260509083846 42 323 0.0 0.0 0.00 0.00 0.00 82 1013.1
20260509083423 42 323 0.0 0.0 0.00 0.00 0.00 82 1013.1
20260509082846 42 323 0.0 0.0 0.00 0.00 0.00 82 1013.2
20260509082353 42 323 0.0 0.0 0.00 0.00 0.00 82 1013.3
20260509081856 42 323 0.0 0.0 0.00 0.00 0.00 82 1013.2
20260509081420 42 323 0.0 0.0 0.00 0.00 0.00 82 1013.3
20260509080845 42 323 0.0 0.0 0.00 0.00 0.00 82 1013.3
20260509080344 42 323 0.0 0.0 0.00 0.00 0.00 82 1013.3
20260509075857 42 323 0.0 0.0 0.00 0.00 0.00 82 1013.3
20260509075421 42 323 0.0 0.0 0.00 0.00 0.00 82 1013.3
20260509074903 42 323 0.0 0.0 0.00 0.00 0.00 81 1013.1
20260509074348 42 323 0.0 0.0 0.00 0.00 0.00 81 1013.2
20260509073852 42 323 0.0 0.0 0.00 0.00 0.00 80 1013.3
20260509073351 43 323 0.0 0.0 0.00 0.00 0.00 80 1013.4
20260509072857 43 323 0.0 0.0 0.00 0.00 0.00 80 1013.4
20260509072358 43 323 0.0 0.0 0.00 0.00 0.00 80 1013.5
20260509071859 43 323 0.0 0.0 0.00 0.00 0.00 80 1013.4
20260509071403 43 323 0.0 0.0 0.00 0.00 0.00 80 1013.5
20260509070849 43 323 0.0 0.0 0.00 0.00 0.00 80 1013.5
20260509070351 43 323 0.0 0.0 0.00 0.00 0.00 80 1013.4
20260509065843 43 323 0.0 1.0 0.00 0.00 0.00 80 1013.3
20260509065410 43 323 0.0 1.0 0.00 0.00 0.00 79 1013.2
20260509064852 44 323 0.0 1.0 0.00 0.00 0.00 79 1013.2
20260509064357 44 323 0.0 0.0 0.00 0.00 0.00 78 1013.0
20260509063901 44 323 0.0 0.0 0.00 0.00 0.00 78 1012.7
20260509063400 44 323 0.0 0.0 0.00 0.00 0.00 77 1012.8
20260509062904 44 323 0.0 0.0 0.00 0.00 0.00 77 1013.0
20260509062349 44 323 0.0 0.0 0.00 0.00 0.00 77 1013.0
20260509061852 44 323 0.0 1.0 0.00 0.00 0.00 77 1013.0
20260509061356 44 323 0.0 1.0 0.00 0.00 0.00 76 1013.1
20260509060900 44 323 0.0 1.0 0.00 0.00 0.00 76 1013.1
20260509060355 45 323 0.0 1.0 0.00 0.00 0.00 76 1013.1
20260509055847 45 323 0.0 0.0 0.00 0.00 0.00 75 1013.0
20260509055352 45 323 0.0 0.0 0.00 0.00 0.00 75 1012.9
20260509054851 45 323 0.0 0.0 0.00 0.00 0.00 74 1012.9
20260509054354 45 323 0.0 0.0 0.00 0.00 0.00 74 1013.0
20260509053857 45 323 0.0 0.0 0.00 0.00 0.00 74 1013.0
20260509053358 45 323 0.0 0.0 0.00 0.00 0.00 74 1013.1
20260509052901 46 323 0.0 0.0 0.00 0.00 0.00 74 1013.1
20260509052346 46 323 0.0 0.0 0.00 0.00 0.00 73 1013.1
20260509051852 46 323 0.0 0.0 0.00 0.00 0.00 73 1013.0
20260509051357 46 323 0.0 0.0 0.00 0.00 0.00 73 1012.9
20260509050845 46 323 0.0 0.0 0.00 0.00 0.00 72 1012.9
20260509050346 46 323 0.0 0.0 0.00 0.00 0.00 72 1012.9
20260509045857 46 323 0.0 0.0 0.00 0.00 0.00 72 1012.9
20260509045345 46 323 0.0 0.0 0.00 0.00 0.00 72 1012.8
20260509044851 47 323 0.0 0.0 0.00 0.00 0.00 71 1012.9
20260509044357 47 323 0.0 0.0 0.00 0.00 0.00 70 1012.8
20260509043843 47 323 0.0 0.0 0.00 0.00 0.00 70 1012.8
20260509043347 47 323 0.0 0.0 0.00 0.00 0.00 70 1012.8
20260509042847 47 323 0.0 0.0 0.00 0.00 0.00 70 1012.8
20260509042408 47 323 0.0 0.0 0.00 0.00 0.00 69 1012.8
20260509041915 47 323 0.0 0.0 0.00 0.00 0.00 69 1012.8
20260509041420 47 323 0.0 0.0 0.00 0.00 0.00 68 1012.7
20260509040903 48 323 0.0 0.0 0.00 0.00 0.00 68 1012.7
20260509040355 48 323 0.0 0.0 0.00 0.00 0.00 67 1012.6
20260509035904 48 323 0.0 0.0 0.00 0.00 0.00 67 1012.5
20260509035348 48 323 0.0 0.0 0.00 0.00 0.00 67 1012.5
20260509034849 48 323 0.0 0.0 0.00 0.00 0.00 67 1012.5
20260509034350 49 323 0.0 0.0 0.00 0.00 0.00 66 1012.5
20260509033916 49 323 0.0 0.0 0.00 0.00 0.00 65 1012.4
20260509033354 49 323 0.0 0.0 0.00 0.00 0.00 64 1012.5
20260509032900 49 323 0.0 0.0 0.00 0.00 0.00 63 1012.4
20260509032403 50 323 0.0 0.0 0.00 0.00 0.00 63 1012.4
20260509031844 50 323 0.0 0.0 0.00 0.00 0.00 62 1012.5
20260509031350 50 323 0.0 0.0 0.00 0.00 0.00 62 1012.4
20260509030854 50 323 0.0 0.0 0.00 0.00 0.00 61 1012.4
20260509030350 51 323 0.0 0.0 0.00 0.00 0.00 60 1012.2
20260509025921 51 323 0.0 0.0 0.00 0.00 0.00 59 1012.3
20260509025345 51 323 0.0 0.0 0.00 0.00 0.00 59 1012.3
20260509024850 51 323 0.0 0.0 0.00 0.00 0.00 59 1012.3
20260509024354 51 323 0.0 0.0 0.00 0.00 0.00 58 1012.3
20260509023857 51 323 0.0 3.0 0.00 0.00 0.00 58 1012.2
20260509023359 51 323 0.0 3.0 0.00 0.00 0.00 58 1012.2